Home   Weather   Carouge   Past weeks

Flag for Switzerland Past Weather in Carouge, Geneva, Switzerland — Yesterday and Last 2 Weeks

Now
43 °F

Quite cool.


Feels Like: 39 °F
Forecast: 34 / 49 °F
Wind: 6 mph from Northeast

Location: Geneve-Cointrin

Current Time: Apr 27, 2017 at 7:03:04 pm

Latest Report: Apr 27, 2017 at 6:00 pm


Visibility: N/A

Pressure: 29.96 "Hg

Humidity: 71%

Dew Point: 34 °F

Location of CarougeLocation

Past Weather in Carouge — Graph

°F

Carouge Temperature Yesterday

Maximum temperature yesterday: 53 °F (at 3:00 pm)
Minimum temperature yesterday: 42 °F (at 11:00 pm)
Average temperature yesterday: 47 °F

High & Low Weather Summary for the Past Weeks

 TemperatureHumidityPressure
High73 °F (Apr 24, 6:00 pm)99% (Apr 25, 10:00 pm)30.50 "Hg (Apr 25, 10:00 pm)
Low32 °F (Apr 22, 6:00 am)13% (Apr 21, 7:00 pm)29.72 "Hg (Apr 25, 9:00 pm)
Average50 °F58%30.12 "Hg
* Reported Apr 12 5:00 pm — Apr 27 5:00 pm, Carouge, Weather by CustomWeather, © 2017

Note: Actual official high and low records may vary slightly from our data, if they occured in-between our weather recording intervals... More about our weather records

Advertising

Carouge Weather History for the Previous 24 Hours

Scroll right to see more
 ConditionsComfort  
Time TempWeatherWind HumidityBarometerVisibility
5:00 pm
Thu, Apr 27
43 °FOvercast.8 mph75%29.96 "Hg12 mi
4:00 pm43 °FQuite cool.8 mph76%29.98 "HgN/A
3:00 pm42 °FQuite cool.8 mph72%29.99 "HgN/A
2:00 pm42 °FOvercast.8 mph72%30.00 "Hg14 mi
1:00 pm41 °FQuite cool.6 mph75%30.00 "HgN/A
12:00 pm41 °FQuite cool.9 mph73%30.01 "HgN/A
11:00 am41 °FLight rain. Overcast.9 mph84%30.00 "Hg12 mi
10:00 am41 °FQuite cool.7 mph82%30.00 "HgN/A
9:00 am40 °FQuite cool.7 mph85%29.99 "HgN/A
8:00 am41 °FOvercast.5 mph89%29.96 "Hg28 mi
7:00 am40 °FQuite cool.2 mph90%29.97 "HgN/A
6:00 am40 °FChilly.3 mph95%29.96 "HgN/A
5:00 am40 °FQuite cool.3 mph88%29.96 "HgN/A
4:00 am40 °FChilly.2 mph99%29.96 "HgN/A
3:00 am40 °FQuite cool.5 mph89%29.96 "HgN/A
2:00 am40 °FQuite cool.8 mph93%29.97 "HgN/A
1:00 am42 °FQuite cool.7 mph88%29.96 "HgN/A
12:00 am41 °FQuite cool.7 mph93%29.96 "HgN/A
11:00 pm
Wed, Apr 26
42 °FRain. Low clouds.7 mph93%29.94 "Hg5 mi
10:00 pm43 °FQuite cool.5 mph94%29.92 "HgN/A
9:00 pm44 °FQuite cool.5 mph86%29.89 "HgN/A
8:00 pm45 °FOvercast.9 mph82%29.88 "Hg16 mi
7:00 pm46 °FCool.7 mph79%29.86 "HgN/A
Weather by CustomWeather, © 2017

See weather overviewHow to use our weather pages